Volver al catálogo

STARLINK-5528

ActivoComunicacionesVLEO
NORAD 56890·PAYLOAD·🇺🇸 United States

Lanzado Jun 12, 2023 desde Cape Canaveral Space Force Station

Loading…

Próximos Pases (próximas 24 horas)

TLE

ActualizadoSource: CelesTrak SupGP

Época: Sep 15, 2026, 02:28 UTC

1 56890C 23083Q   26258.10326389  .00020949  00000+0  75873-3 0  2583
2 56890  43.0009  98.8375 0001152 262.4220 306.7707 15.27570622    11

Sigue STARLINK-5528 en tiempo real con AllMySat

Download on the App Store